TimeCDT,TemperatureF,Dew PointF,Humidity,Sea Level PressureIn,VisibilityMPH,Wind Direction,Wind SpeedMPH,Gust SpeedMPH,PrecipitationIn,Events,Conditions,WindDirDegrees,DateUTC
12:09 AM,35.6,28.4,75,29.89,10.0,Variable,3.5,-,N/A,,Scattered Clouds,0,2012-10-10 05:09:00
12:53 AM,33.1,28.0,82,29.93,10.0,Variable,3.5,-,N/A,,Partly Cloudy,0,2012-10-10 05:53:00
1:53 AM,32.0,27.0,82,29.94,10.0,West,3.5,-,N/A,,Mostly Cloudy,270,2012-10-10 06:53:00
2:53 AM,33.1,28.0,82,29.95,10.0,Variable,4.6,-,N/A,,Overcast,0,2012-10-10 07:53:00
3:53 AM,33.1,27.0,78,29.95,10.0,Variable,3.5,-,N/A,,Overcast,0,2012-10-10 08:53:00
4:53 AM,32.0,27.0,82,29.97,10.0,Variable,3.5,-,N/A,,Mostly Cloudy,0,2012-10-10 09:53:00
5:53 AM,33.1,27.0,78,29.98,10.0,Variable,3.5,-,N/A,,Overcast,0,2012-10-10 10:53:00
6:53 AM,32.0,27.0,82,30.00,10.0,Calm,Calm,-,0.00,,Overcast,0,2012-10-10 11:53:00
7:53 AM,32.0,27.0,82,30.03,10.0,Variable,4.6,-,N/A,,Overcast,0,2012-10-10 12:53:00
8:53 AM,34.0,27.0,75,30.04,10.0,Variable,5.8,-,N/A,,Overcast,0,2012-10-10 13:53:00
9:53 AM,37.0,28.0,70,30.05,10.0,Variable,4.6,-,N/A,,Mostly Cloudy,0,2012-10-10 14:53:00
10:16 AM,37.4,28.4,70,30.01,10.0,Variable,4.6,-,N/A,,Mostly Cloudy,0,2012-10-10 15:16:00
10:53 AM,41.0,28.0,60,30.05,10.0,Variable,4.6,-,N/A,,Scattered Clouds,0,2012-10-10 15:53:00
11:53 AM,44.1,26.1,49,30.05,10.0,Variable,5.8,-,N/A,,Mostly Cloudy,0,2012-10-10 16:53:00
12:53 PM,43.0,23.0,45,30.05,10.0,West,10.4,18.4,N/A,,Overcast,270,2012-10-10 17:53:00
1:53 PM,44.1,23.0,43,30.04,10.0,Variable,3.5,-,N/A,,Mostly Cloudy,0,2012-10-10 18:53:00
2:53 PM,45.0,21.9,40,30.02,10.0,Variable,6.9,-,N/A,,Overcast,0,2012-10-10 19:53:00
3:53 PM,46.0,21.9,39,30.02,10.0,Variable,4.6,-,N/A,,Mostly Cloudy,0,2012-10-10 20:53:00
4:53 PM,45.0,21.0,39,30.01,10.0,WSW,6.9,-,N/A,,Mostly Cloudy,250,2012-10-10 21:53:00
5:53 PM,45.0,21.9,40,30.01,10.0,Calm,Calm,-,N/A,,Mostly Cloudy,0,2012-10-10 22:53:00
6:53 PM,44.1,24.1,45,30.01,10.0,Calm,Calm,-,N/A,,Overcast,0,2012-10-10 23:53:00
7:53 PM,42.1,24.1,49,30.01,10.0,Calm,Calm,-,N/A,,Overcast,0,2012-10-11 00:53:00
8:53 PM,44.1,24.1,45,30.01,10.0,WSW,4.6,-,N/A,,Overcast,240,2012-10-11 01:53:00
9:53 PM,44.1,26.1,49,29.99,10.0,Variable,3.5,-,0.00,,Overcast,0,2012-10-11 02:53:00
10:53 PM,43.0,28.9,58,29.98,10.0,Calm,Calm,-,0.00,,Overcast,0,2012-10-11 03:53:00
11:53 PM,41.0,30.9,67,29.95,10.0,Calm,Calm,-,0.00,,Overcast,0,2012-10-11 04:53:00